EW2972 Weather Reports


time (UTC)temp
C
wind
direction
speed
KPH
gust
KPH
rain 1hr
cm
rain 24hr
cm
rain mn
cm
humidity
%
barometer
mb
20260506080647 12 347 6.4 16.1 0.00 0.00 0.00 74 987.7
20260506080150 12 355 6.4 17.7 0.00 0.00 0.00 75 987.6
20260506072636 13 331 8.0 17.7 0.00 0.00 0.00 75 987.5
20260506072138 12 331 9.7 17.7 0.00 0.00 0.00 75 987.0
20260506071633 13 41 11.3 17.7 0.00 0.00 0.00 74 986.7
20260506071143 13 5 14.5 19.3 0.00 0.00 0.00 75 986.6
20260506070633 13 28 12.9 19.3 0.00 0.00 0.00 75 986.6
20260506070157 13 5 12.9 19.3 0.00 0.00 0.00 75 986.8
20260506062127 13 321 8.0 14.5 0.00 0.00 0.00 76 987.2
20260506061618 13 342 9.7 17.7 0.00 0.00 0.00 76 987.1
20260506061119 13 5 9.7 17.7 0.00 0.00 0.00 76 986.9
20260506060616 13 326 8.0 17.7 0.00 0.00 0.00 76 987.0
20260506060547 13 323 11.3 22.5 0.00 0.00 0.00 77 987.4
20260506060440 13 345 9.7 19.3 0.00 0.00 0.00 75 987.1
20260506050732 14 309 9.7 19.3 0.00 0.00 0.00 77 987.4
20260506045124 14 315 8.0 17.7 0.00 0.00 0.00 78 987.2
20260506044849 14 327 8.0 17.7 0.00 0.00 0.00 78 987.4
20260506044612 14 0 8.0 19.3 0.00 0.00 0.00 78 987.3
20260506044154 14 0 8.0 19.3 0.00 0.00 0.00 78 987.4
20260506043057 14 328 9.7 22.5 0.00 0.00 0.00 79 987.5
20260506042548 14 319 9.7 22.5 0.00 0.00 0.00 79 987.3
20260506042045 14 5 9.7 19.3 0.00 0.00 0.00 79 987.2
20260506041544 14 320 8.0 17.7 0.00 0.00 0.00 79 987.3
20260506041045 14 330 6.4 14.5 0.00 0.00 0.00 79 987.4
20260506040544 15 0 9.7 24.1 0.00 0.00 0.00 79 987.3
20260506040055 15 55 11.3 24.1 0.00 0.00 0.00 79 987.2
20260506035540 15 17 11.3 20.9 0.00 0.00 0.00 79 987.0
20260506035041 15 355 11.3 20.9 0.00 0.00 0.00 79 986.7
20260506034543 15 17 9.7 22.5 0.00 0.00 0.00 79 986.9
20260506034042 15 17 11.3 22.5 0.00 0.00 0.00 79 986.8
20260506033541 15 318 9.7 19.3 0.00 0.00 0.00 79 986.8
20260506033038 15 348 8.0 19.3 0.00 0.00 0.00 79 986.8
20260506032537 15 0 8.0 17.7 0.00 0.00 0.00 79 986.5
20260506032130 15 327 11.3 20.9 0.00 0.00 0.00 79 986.3
20260506032054 15 9 9.7 17.7 0.00 0.00 0.00 79 986.3
20260506031033 15 324 12.9 20.9 0.00 0.00 0.00 78 986.4
20260506030624 15 355 9.7 19.3 0.00 0.00 0.00 78 986.4
20260506030544 15 346 11.3 20.9 0.00 0.00 0.00 78 986.2
20260506025535 15 324 11.3 20.9 0.00 0.00 0.00 78 986.4
20260506025041 16 0 12.9 25.7 0.00 0.00 0.00 78 986.4
20260506024535 16 304 11.3 25.7 0.00 0.00 0.00 77 986.3
20260506024033 16 312 9.7 19.3 0.00 0.00 0.00 79 986.0
20260506023536 16 336 9.7 19.3 0.00 0.00 0.00 78 986.0
20260506023024 16 15 9.7 19.3 0.00 0.00 0.00 78 985.9
20260506022524 16 335 11.3 20.9 0.00 0.00 0.00 78 985.6
20260506022022 16 338 11.3 20.9 0.00 0.00 0.00 78 985.6
20260506021520 16 0 8.0 19.3 0.00 0.00 0.00 78 985.5
20260506021021 16 355 8.0 20.9 0.00 0.00 0.00 78 985.4
20260506020517 16 333 11.3 22.5 0.00 0.00 0.00 77 985.1
20260506020018 16 32 11.3 22.5 0.00 0.00 0.00 77 985.0
20260506015537 17 332 9.7 17.7 0.00 0.00 0.00 76 984.8
20260506015514 17 23 9.7 17.7 0.00 0.00 0.00 77 984.9
20260506014513 17 5 12.9 25.7 0.00 0.00 0.00 75 984.6
20260506014013 17 26 17.7 27.4 0.00 0.00 0.00 74 984.4
20260506013518 18 0 12.9 27.4 0.00 0.00 0.00 74 984.2
20260506013011 18 40 8.0 25.7 0.00 0.00 0.00 75 984.2
20260506012511 18 355 8.0 17.7 0.00 0.00 0.00 75 983.8
20260506012120 18 333 12.9 22.5 0.00 0.00 0.00 72 983.4
20260506012012 18 319 8.0 17.7 0.00 0.00 0.00 75 983.7
20260506011631 18 320 8.0 17.7 0.00 0.00 0.00 74 983.5
20260506011057 18 348 8.0 16.1 0.00 0.00 0.00 73 983.3
20260506011009 18 313 11.3 24.1 0.00 0.00 0.00 74 983.5
20260506010633 18 320 12.9 24.1 0.00 0.00 0.00 74 983.5
20260506010104 18 303 9.7 22.5 0.00 0.00 0.00 73 983.3
20260506004501 18 321 14.5 22.5 0.00 0.00 0.00 72 983.3
20260506004227 18 323 12.9 19.3 0.00 0.00 0.00 72 983.4
20260506004016 18 327 12.9 20.9 0.00 0.00 0.00 72 983.3
20260506003341 20 311 17.7 29.0 0.00 0.00 0.00 70 983.0
20260506002949 19 308 11.3 19.3 0.00 0.00 0.00 72 983.5
20260506002632 20 292 16.1 27.4 0.00 0.00 0.00 69 982.9
20260506002501 19 325 11.3 22.5 0.00 0.00 0.00 72 983.2
20260506002043 19 5 14.5 29.0 0.00 0.00 0.00 71 982.9
20260506000446 20 321 16.1 25.7 0.00 0.00 0.00 70 982.8
20260506000037 20 328 17.7 27.4 0.00 0.00 0.00 69 983.1
20260505235456 20 324 14.5 27.4 0.00 0.00 0.00 69 983.1
20260505235013 21 288 14.5 25.7 0.00 0.00 0.00 69 983.0
20260505234510 21 343 14.5 25.7 0.00 0.00 0.00 69 983.0
20260505234007 21 326 14.5 27.4 0.00 0.00 0.00 69 983.1
20260505233603 22 321 16.1 25.7 0.00 0.00 0.00 67 982.7
20260505233455 21 308 14.5 27.4 0.00 0.00 0.00 68 983.2
20260505233013 21 309 14.5 22.5 0.00 0.00 0.00 69 983.0
20260505232521 21 300 14.5 25.7 0.00 0.00 0.00 68 982.7
20260505231437 22 319 14.5 24.1 0.00 0.00 0.00 68 982.6
20260505231102 22 308 17.7 32.2 0.00 0.00 0.00 68 982.8
20260505230955 22 326 14.5 24.1 0.00 0.00 0.00 68 982.2
20260505225937 22 306 17.7 32.2 0.00 0.00 0.00 67 982.7
20260505225443 23 336 17.7 32.2 0.00 0.00 0.00 66 982.7
20260505224933 23 291 17.7 32.2 0.00 0.00 0.00 66 982.7
20260505224436 23 334 17.7 27.4 0.00 0.00 0.00 66 982.5
20260505223936 24 306 16.1 25.7 0.00 0.00 0.00 64 982.5
20260505223435 25 292 16.1 27.4 0.00 0.00 0.00 63 982.4
20260505222934 25 306 14.5 27.4 0.00 0.00 0.00 64 982.2
20260505222437 25 307 12.9 25.7 0.00 0.00 0.00 63 982.2
20260505221936 25 318 14.5 20.9 0.00 0.00 0.00 63 982.3
20260505221437 25 313 14.5 20.9 0.00 0.00 0.00 62 982.0
20260505220931 26 288 11.3 20.9 0.00 0.00 0.00 64 981.9
20260505220439 26 338 12.9 25.7 0.00 0.00 0.00 63 981.9
20260505220057 27 288 14.5 25.7 0.00 0.00 0.00 60 981.9
20260505215955 26 311 14.5 25.7 0.00 0.00 0.00 62 981.7
20260505214933 27 290 14.5 22.5 0.00 0.00 0.00 61 981.6
20260505214433 28 298 14.5 22.5 0.00 0.00 0.00 59 981.8
20260505213930 27 306 14.5 22.5 0.00 0.00 0.00 60 981.8
20260505213559 27 263 14.5 22.5 0.00 0.00 0.00 55 981.8
20260505213458 27 258 14.5 22.5 0.00 0.00 0.00 60 981.7
20260505212943 27 299 14.5 22.5 0.00 0.00 0.00 57 981.7
20260505212046 28 289 17.7 27.4 0.00 0.00 0.00 56 981.8
20260505211947 27 245 16.1 27.4 0.00 0.00 0.00 57 981.8
20260505210925 28 304 16.1 27.4 0.00 0.00 0.00 56 981.9
20260505210419 28 288 16.1 27.4 0.00 0.00 0.00 54 981.7
20260505205922 28 302 16.1 25.7 0.00 0.00 0.00 53 981.8
20260505205418 28 281 16.1 25.7 0.00 0.00 0.00 49 981.8
20260505204925 28 287 16.1 25.7 0.00 0.00 0.00 52 981.8
20260505204418 28 265 14.5 24.1 0.00 0.00 0.00 48 981.9
20260505203919 28 269 14.5 27.4 0.00 0.00 0.00 48 982.0
20260505203415 28 283 14.5 27.4 0.00 0.00 0.00 45 982.0
20260505202923 28 277 16.1 29.0 0.00 0.00 0.00 47 982.1
20260505202414 28 279 19.3 29.0 0.00 0.00 0.00 43 982.2
20260505201920 29 281 17.7 27.4 0.00 0.00 0.00 46 982.1
20260505201413 29 293 19.3 30.6 0.00 0.00 0.00 43 981.8
20260505200920 29 265 17.7 30.6 0.00 0.00 0.00 49 982.0
20260505200414 30 269 14.5 25.7 0.00 0.00 0.00 53 982.1
20260505195915 30 234 12.9 22.5 0.00 0.00 0.00 50 982.0
20260505195543 30 234 16.1 24.1 0.00 0.00 0.00 50 982.1
20260505195434 30 250 14.5 24.1 0.00 0.00 0.00 51 982.1
20260505194413 30 251 14.5 24.1 0.00 0.00 0.00 51 982.0
20260505193919 29 244 14.5 24.1 0.00 0.00 0.00 51 981.8
20260505193410 30 233 16.1 25.7 0.00 0.00 0.00 53 982.0
20260505192914 29 239 17.7 25.7 0.00 0.00 0.00 52 982.0
20260505192408 30 238 16.1 29.0 0.00 0.00 0.00 55 982.1
20260505191906 30 215 17.7 32.2 0.00 0.00 0.00 56 982.0
20260505191406 30 219 19.3 32.2 0.00 0.00 0.00 58 981.9
20260505190909 29 232 20.9 33.8 0.00 0.00 0.00 56 981.9
20260505190407 29 232 20.9 33.8 0.00 0.00 0.00 57 982.0
20260505185921 29 244 17.7 29.0 0.00 0.00 0.00 56 981.8
20260505185401 29 272 17.7 29.0 0.00 0.00 0.00 57 981.8
20260505184906 29 238 17.7 29.0 0.00 0.00 0.00 55 981.8
20260505184400 30 220 16.1 24.1 0.00 0.00 0.00 53 981.7
20260505183905 29 227 16.1 22.5 0.00 0.00 0.00 55 981.7
20260505183359 30 213 17.7 27.4 0.00 0.00 0.00 51 981.8
20260505182900 29 232 17.7 27.4 0.00 0.00 0.00 55 982.0
20260505182358 29 240 14.5 27.4 0.00 0.00 0.00 55 981.9
20260505181900 29 247 14.5 22.5 0.00 0.00 0.00 62 982.0
20260505181355 28 211 16.1 27.4 0.00 0.00 0.00 60 981.9
20260505180857 28 227 14.5 27.4 0.00 0.00 0.00 60 981.9
20260505180645 28 201 16.1 25.7 0.00 0.00 0.00 63 982.0
20260505180422 28 214 14.5 25.7 0.00 0.00 0.00 63 981.9
20260505175347 28 214 16.1 27.4 0.00 0.00 0.00 62 981.9
20260505175036 28 217 19.3 27.4 0.00 0.00 0.00 63 982.0
20260505174910 28 209 19.3 27.4 0.00 0.00 0.00 65 982.1
20260505174014 27 207 14.5 29.0 0.00 0.00 0.00 67 982.0
20260505173906 28 210 16.1 29.0 0.00 0.00 0.00 65 982.0
20260505172847 27 206 12.9 25.7 0.00 0.00 0.00 69 981.9
20260505172351 27 202 12.9 27.4 0.00 0.00 0.00 68 981.9
20260505171850 27 182 12.9 27.4 0.00 0.00 0.00 67 981.8
20260505171347 26 195 11.3 25.7 0.00 0.00 0.00 69 981.8
20260505170848 27 179 11.3 25.7 0.00 0.00 0.00 69 981.8
20260505170345 26 211 12.9 20.9 0.00 0.00 0.00 72 981.8
20260505165846 26 163 12.9 25.7 0.00 0.00 0.00 71 981.8
20260505165346 25 164 12.9 25.7 0.00 0.00 0.00 72 981.8
20260505164852 25 198 12.9 22.5 0.00 0.00 0.00 73 981.8
20260505164346 25 148 11.3 22.5 0.00 0.00 0.00 73 981.7
20260505163849 25 190 11.3 25.7 0.00 0.00 0.00 73 981.7
20260505163345 25 202 12.9 25.7 0.00 0.00 0.00 73 981.6
20260505162847 25 177 12.9 24.1 0.00 0.00 0.00 73 981.7
20260505162341 25 205 14.5 24.1 0.00 0.00 0.00 72 981.6
20260505162058 24 160 14.5 25.7 0.00 0.00 0.00 73 981.6
20260505161915 24 179 14.5 25.7 0.00 0.00 0.00 73 981.6
20260505160846 24 202 12.9 22.5 0.00 0.00 0.00 73 981.7
20260505160351 24 215 14.5 24.1 0.00 0.00 0.00 73 981.6
20260505152347 24 190 17.7 33.8 0.00 0.00 0.00 73 981.2
20260505151834 24 213 17.7 33.8 0.00 0.00 0.00 73 981.2
20260505151342 24 192 17.7 30.6 0.00 0.00 0.00 74 981.0
20260505150840 23 209 16.1 30.6 0.00 0.00 0.00 74 981.1
20260505150343 23 207 14.5 25.7 0.00 0.00 0.00 76 981.2
20260505140331 22 197 14.5 27.4 0.00 0.00 0.00 80 980.8
20260505124841 21 178 12.9 27.4 0.00 0.00 0.00 84 980.7
20260505124313 21 214 12.9 25.7 0.00 0.00 0.00 84 980.7
20260505123818 21 162 12.9 24.1 0.00 0.00 0.00 84 980.6
20260505123320 20 196 14.5 32.2 0.00 0.00 0.00 85 980.5
20260505122812 20 212 16.1 32.2 0.00 0.00 0.00 85 980.4
20260505122450 20 205 16.1 32.2 0.00 0.00 0.00 85 979.9
20260505122433 20 181 14.5 32.2 0.00 0.00 0.00 85 979.8
20260505122337 20 167 16.1 30.6 0.00 0.00 0.00 85 980.3
20260505120807 20 192 14.5 29.0 0.00 0.00 0.00 85 979.9
20260505120306 20 190 14.5 29.0 0.00 0.00 0.00 85 979.9
20260505115803 20 224 14.5 29.0 0.00 0.00 0.00 86 979.9
20260505115306 20 203 16.1 29.0 0.00 0.00 0.00 86 980.1
20260505114806 20 197 14.5 29.0 0.00 0.00 0.00 86 979.9
20260505114310 20 184 16.1 30.6 0.00 0.00 0.00 86 979.9
20260505113807 20 170 14.5 30.6 0.00 0.00 0.00 86 979.9
20260505113312 20 190 11.3 24.1 0.00 0.00 0.00 86 979.8
20260505112806 20 205 12.9 20.9 0.00 0.00 0.00 86 979.9
20260505112308 20 198 12.9 24.1 0.00 0.00 0.00 86 979.8
20260505111804 20 176 14.5 24.1 0.00 0.00 0.00 86 979.9
20260505111305 20 175 12.9 25.7 0.00 0.00 0.00 86 979.9
20260505110801 20 221 12.9 25.7 0.00 0.00 0.00 86 980.1
20260505110259 20 184 12.9 27.4 0.00 0.00 0.00 85 979.9
20260505101756 20 182 14.5 32.2 0.00 0.00 0.00 83 979.9
20260505101251 21 171 14.5 32.2 0.00 0.00 0.00 83 980.1
20260505100747 21 201 14.5 27.4 0.00 0.00 0.00 83 980.1
20260505100249 21 176 14.5 27.4 0.00 0.00 0.00 82 980.1
20260505095829 21 173 16.1 27.4 0.00 0.00 0.00 82 980.2
20260505095247 21 188 16.1 30.6 0.00 0.00 0.00 82 980.2
20260505094848 21 167 16.1 30.6 0.00 0.00 0.00 81 980.2
20260505094243 21 171 16.1 30.6 0.00 0.00 0.00 81 980.2
20260505093804 21 173 14.5 30.6 0.00 0.00 0.00 81 979.8
20260505093243 21 198 14.5 30.6 0.00 0.00 0.00 80 979.9
20260505092745 21 196 14.5 30.6 0.00 0.00 0.00 80 979.9
20260505092242 21 202 14.5 30.6 0.00 0.00 0.00 80 979.9
20260505091743 21 134 16.1 33.8 0.00 0.00 0.00 80 979.9
20260505091241 21 180 16.1 33.8 0.00 0.00 0.00 79 980.1
20260505090742 21 188 16.1 27.4 0.00 0.00 0.00 79 980.3
20260505090239 21 188 17.7 35.4 0.00 0.00 0.00 79 980.3
20260505085739 21 202 16.1 35.4 0.00 0.00 0.00 78 980.4
20260505085237 21 192 14.5 29.0 0.00 0.00 0.00 78 980.4
20260505084815 21 173 16.1 32.2 0.00 0.00 0.00 77 980.2
20260505084450 22 196 17.7 30.6 0.00 0.00 0.00 77 980.3
20260505084444 22 194 16.1 35.4 0.00 0.00 0.00 76 980.3
20260505084421 22 180 14.5 35.4 0.00 0.00 0.00 76 980.3
20260505084311 22 194 17.7 32.2 0.00 0.00 0.00 77 980.3
20260505082231 22 190 14.5 30.6 0.00 0.00 0.00 76 980.3
20260505081729 22 194 16.1 32.2 0.00 0.00 0.00 75 980.4